K3TXT-1 Weather Reports


time (UTC)temp
C
wind
direction
speed
KPH
gust
KPH
rain 1hr
cm
rain 24hr
cm
rain mn
cm
humidity
%
barometer
mb
20260504234758 20 139 0.0 3.2 0.00 0.00 0.00 62
20260504234559 20 139 0.0 3.2 0.00 0.00 0.00 61
20260504234359 20 139 0.0 3.2 0.00 0.00 0.00 61
20260504234159 20 139 0.0 3.2 0.00 0.00 0.00 61
20260504234002 20 135 0.0 1.6 0.00 0.00 0.00 61
20260504233759 20 135 0.0 9.7 0.00 0.00 0.00 61
20260504233358 20 135 0.0 9.7 0.00 0.00 0.00 60
20260504233159 20 134 0.0 9.7 0.00 0.00 0.00 60
20260504233004 20 134 3.2 9.7 0.00 0.00 0.00 59
20260504232758 20 164 0.0 6.4 0.00 0.00 0.00 59
20260504232558 20 164 0.0 6.4 0.00 0.00 0.00 59
20260504232401 20 163 1.6 8.0 0.00 0.00 0.00 58
20260504232159 20 156 1.6 8.0 0.00 0.00 0.00 58
20260504232000 20 165 0.0 8.0 0.00 0.00 0.00 58
20260504231759 20 166 3.2 8.0 0.00 0.00 0.00 57
20260504231559 20 146 3.2 9.7 0.00 0.00 0.00 57
20260504231400 20 199 1.6 9.7 0.00 0.00 0.00 57
20260504231159 21 197 3.2 9.7 0.00 0.00 0.00 57
20260504231000 21 181 1.6 9.7 0.00 0.00 0.00 56
20260504230759 21 126 4.8 9.7 0.00 0.00 0.00 56
20260504230559 21 168 1.6 9.7 0.00 0.00 0.00 55
20260504230359 21 280 0.0 8.0 0.00 0.00 0.00 54
20260504230159 21 279 1.6 8.0 0.00 0.00 0.00 54
20260504225759 21 182 1.6 14.5 0.00 0.00 0.00 53
20260504225559 21 166 4.8 14.5 0.00 0.00 0.00 53
20260504225158 21 165 6.4 14.5 0.00 0.00 0.00 52
20260504225005 21 164 1.6 11.3 0.00 0.00 0.00 51
20260504224559 21 228 3.2 17.7 0.00 0.00 0.00 51
20260504224359 21 215 4.8 17.7 0.00 0.00 0.00 50
20260504224159 21 163 4.8 17.7 0.00 0.00 0.00 49
20260504224005 21 179 6.4 17.7 0.00 0.00 0.00 49
20260504223558 21 145 3.2 17.7 0.00 0.00 0.00 48
20260504223359 21 225 6.4 17.7 0.00 0.00 0.00 48
20260504223159 21 167 3.2 17.7 0.00 0.00 0.00 47
20260504223000 21 172 8.0 17.7 0.00 0.00 0.00 46
20260504222759 21 262 6.4 16.1 0.00 0.00 0.00 47
20260504222559 21 160 3.2 16.1 0.00 0.00 0.00 46
20260504222359 22 166 4.8 16.1 0.00 0.00 0.00 46
20260504222159 22 152 3.2 16.1 0.00 0.00 0.00 47
20260504222006 22 320 1.6 12.9 0.00 0.00 0.00 46
20260504221759 22 260 4.8 12.9 0.00 0.00 0.00 46
20260504221559 22 141 6.4 19.3 0.00 0.00 0.00 46
20260504221359 22 150 3.2 19.3 0.00 0.00 0.00 47
20260504221200 22 183 4.8 19.3 0.00 0.00 0.00 47
20260504220759 22 169 6.4 19.3 0.00 0.00 0.00 48
20260504220558 22 183 4.8 17.7 0.00 0.00 0.00 48
20260504220358 22 158 3.2 19.3 0.00 0.00 0.00 48
20260504220159 22 152 3.2 19.3 0.00 0.00 0.00 47
20260504220001 22 120 4.8 19.3 0.00 0.00 0.00 47
20260504215759 22 183 6.4 19.3 0.00 0.00 0.00 46
20260504215600 22 193 8.0 19.3 0.00 0.00 0.00 47
20260504215400 22 148 4.8 12.9 0.00 0.00 0.00 46
20260504215159 22 140 6.4 12.9 0.00 0.00 0.00 46
20260504215002 22 142 4.8 12.9 0.00 0.00 0.00 46
20260504214800 22 146 3.2 9.7 0.00 0.00 0.00 46
20260504214600 23 146 4.8 9.7 0.00 0.00 0.00 46
20260504214158 23 189 4.8 11.3 0.00 0.00 0.00 47
20260504214001 23 173 3.2 12.9 0.00 0.00 0.00 46
20260504213758 23 151 4.8 12.9 0.00 0.00 0.00 45
20260504213559 23 154 4.8 14.5 0.00 0.00 0.00 47
20260504213401 23 186 3.2 14.5 0.00 0.00 0.00 46
20260504213159 23 162 1.6 14.5 0.00 0.00 0.00 46
20260504213001 23 191 3.2 14.5 0.00 0.00 0.00 46
20260504212758 23 177 4.8 14.5 0.00 0.00 0.00 46
20260504212559 23 132 3.2 9.7 0.00 0.00 0.00 46
20260504212359 23 150 1.6 11.3 0.00 0.00 0.00 46
20260504212201 23 195 1.6 12.9 0.00 0.00 0.00 46
20260504211759 23 170 4.8 12.9 0.00 0.00 0.00 45
20260504211601 23 164 6.4 12.9 0.00 0.00 0.00 44
20260504211401 23 161 8.0 12.9 0.00 0.00 0.00 44
20260504211159 23 154 6.4 14.5 0.00 0.00 0.00 44
20260504211005 23 156 4.8 14.5 0.00 0.00 0.00 44
20260504210558 23 185 4.8 16.1 0.00 0.00 0.00 45
20260504210400 23 222 3.2 16.1 0.00 0.00 0.00 44
20260504210200 23 187 6.4 16.1 0.00 0.00 0.00 43
20260504210005 23 172 4.8 11.3 0.00 0.00 0.00 44
20260504205800 23 191 3.2 16.1 0.00 0.00 0.00 44
20260504205559 23 172 4.8 17.7 0.00 0.00 0.00 44
20260504205400 23 191 4.8 17.7 0.00 0.00 0.00 44
20260504205159 23 189 6.4 17.7 0.00 0.00 0.00 44
20260504205005 23 203 4.8 17.7 0.00 0.00 0.00 45
20260504204801 23 149 4.8 17.7 0.00 0.00 0.00 45
20260504204600 23 158 4.8 16.1 0.00 0.00 0.00 43
20260504204400 23 241 4.8 16.1 0.00 0.00 0.00 45
20260504204200 23 154 6.4 16.1 0.00 0.00 0.00 44
20260504203800 23 181 4.8 25.7 0.00 0.00 0.00 43
20260504203600 23 144 6.4 25.7 0.00 0.00 0.00 43
20260504203400 23 137 4.8 25.7 0.00 0.00 0.00 44
20260504203200 23 162 8.0 25.7 0.00 0.00 0.00 43
20260504203006 23 187 4.8 16.1 0.00 0.00 0.00 44
20260504202800 23 154 6.4 16.1 0.00 0.00 0.00 43
20260504202401 23 245 3.2 12.9 0.00 0.00 0.00 44
20260504202201 23 162 3.2 16.1 0.00 0.00 0.00 43
20260504202005 23 214 4.8 16.1 0.00 0.00 0.00 43
20260504201600 23 154 6.4 16.1 0.00 0.00 0.00 43
20260504201400 23 142 4.8 12.9 0.00 0.00 0.00 42
20260504201005 24 146 6.4 11.3 0.00 0.00 0.00 42
20260504200759 24 155 6.4 11.3 0.00 0.00 0.00 42
20260504200600 24 168 4.8 11.3 0.00 0.00 0.00 44
20260504200401 24 122 1.6 6.4 0.00 0.00 0.00 43
20260504200201 24 72 1.6 6.4 0.00 0.00 0.00 44
20260504200004 24 177 1.6 9.7 0.00 0.00 0.00 42
20260504195800 24 180 1.6 14.5 0.00 0.00 0.00 43
20260504195401 24 212 3.2 14.5 0.00 0.00 0.00 41
20260504195001 24 115 1.6 11.3 0.00 0.00 0.00 40
20260504194800 24 193 0.0 11.3 0.00 0.00 0.00 38
20260504194559 24 193 3.2 11.3 0.00 0.00 0.00 38
20260504194401 23 193 3.2 8.0 0.00 0.00 0.00 41
20260504194158 23 194 0.0 6.4 0.00 0.00 0.00 44
20260504194005 23 204 1.6 9.7 0.00 0.00 0.00 43
20260504193800 23 216 1.6 9.7 0.00 0.00 0.00 44
20260504193559 23 36 1.6 9.7 0.00 0.00 0.00 42
20260504193400 23 68 1.6 9.7 0.00 0.00 0.00 44
20260504193159 23 218 3.2 9.7 0.00 0.00 0.00 46
20260504193005 23 350 3.2 6.4 0.00 0.00 0.00 47
20260504192802 23 324 1.6 6.4 0.00 0.00 0.00 45
20260504192559 23 155 3.2 6.4 0.00 0.00 0.00 43
20260504192359 23 270 0.0 9.7 0.00 0.00 0.00 42
20260504191759 23 134 3.2 9.7 0.00 0.00 0.00 44
20260504191359 23 208 3.2 8.0 0.00 0.00 0.00 44
20260504191158 23 141 4.8 8.0 0.00 0.00 0.00 44
20260504191004 23 129 3.2 8.0 0.00 0.00 0.00 46
20260504190759 23 77 1.6 6.4 0.00 0.00 0.00 45
20260504190559 24 70 1.6 4.8 0.00 0.00 0.00 46
20260504190400 24 60 0.0 4.8 0.00 0.00 0.00 49
20260504190200 24 41 1.6 4.8 0.00 0.00 0.00 47
20260504185559 24 112 1.6 9.7 0.00 0.00 0.00 43
20260504185359 24 165 1.6 9.7 0.00 0.00 0.00 43
20260504185200 23 155 1.6 9.7 0.00 0.00 0.00 41
20260504185005 23 130 0.0 9.7 0.00 0.00 0.00 41
20260504184759 23 123 4.8 9.7 0.00 0.00 0.00 41
20260504184559 23 167 3.2 9.7 0.00 0.00 0.00 42
20260504184359 23 154 1.6 8.0 0.00 0.00 0.00 42
20260504184200 23 154 3.2 8.0 0.00 0.00 0.00 42
20260504184004 23 149 0.0 12.9 0.00 0.00 0.00 42
20260504183759 23 149 0.0 12.9 0.00 0.00 0.00 41
20260504183600 23 149 1.6 12.9 0.00 0.00 0.00 41
20260504183359 23 148 3.2 12.9 0.00 0.00 0.00 40
20260504183159 23 227 1.6 9.7 0.00 0.00 0.00 39
20260504182759 23 137 3.2 9.7 0.00 0.00 0.00 40
20260504182559 23 120 1.6 12.9 0.00 0.00 0.00 40
20260504182400 23 140 1.6 12.9 0.00 0.00 0.00 41
20260504182202 23 144 3.2 12.9 0.00 0.00 0.00 40
20260504182005 23 164 4.8 12.9 0.00 0.00 0.00 42
20260504181600 23 156 0.0 9.7 0.00 0.00 0.00 41
20260504181401 23 156 3.2 9.7 0.00 0.00 0.00 40
20260504181003 23 162 3.2 9.7 0.00 0.00 0.00 42
20260504180558 23 162 1.6 16.1 0.00 0.00 0.00 42
20260504180159 23 184 1.6 16.1 0.00 0.00 0.00 44
20260504180005 23 310 1.6 16.1 0.00 0.00 0.00 47
20260504175758 22 162 4.8 16.1 0.00 0.00 0.00 43
20260504175600 22 41 0.0 4.8 0.00 0.00 0.00 46
20260504175359 22 39 0.0 8.0 0.00 0.00 0.00 52
20260504175159 22 39 3.2 8.0 0.00 0.00 0.00 47
20260504174759 22 54 1.6 8.0 0.00 0.00 0.00 48
20260504174559 22 222 1.6 8.0 0.00 0.00 0.00 47
20260504174359 22 350 1.6 8.0 0.00 0.00 0.00 45
20260504174200 22 160 3.2 8.0 0.00 0.00 0.00 45
20260504174006 22 45 1.6 6.4 0.00 0.00 0.00 47
20260504173759 22 299 1.6 6.4 0.00 0.00 0.00 49
20260504173601 22 23 1.6 6.4 0.00 0.00 0.00 52
20260504173400 22 43 1.6 6.4 0.00 0.00 0.00 55
20260504173200 22 47 1.6 6.4 0.00 0.00 0.00 54
20260504172759 22 45 0.0 4.8 0.00 0.00 0.00 53
20260504172600 22 43 1.6 6.4 0.00 0.00 0.00 51
20260504172200 22 8 3.2 6.4 0.00 0.00 0.00 53
20260504172004 21 35 1.6 6.4 0.00 0.00 0.00 53
20260504171759 21 93 1.6 8.0 0.00 0.00 0.00 53
20260504171604 21 120 0.0 4.8 0.00 0.00 0.00 51
20260504171402 21 121 1.6 4.8 0.00 0.00 0.00 49
20260504171159 21 120 1.6 4.8 0.00 0.00 0.00 49
20260504170601 21 58 1.6 8.0 0.00 0.00 0.00 51
20260504170401 21 176 1.6 8.0 0.00 0.00 0.00 49
20260504170200 21 48 0.0 8.0 0.00 0.00 0.00 54
20260504160359 21 65 0.0 4.8 0.00 0.00 0.00 53
20260504160200 21 46 1.6 4.8 0.00 0.00 0.00 50
20260504150800 20 228 4.8 9.7 0.00 0.00 0.00 41
20260504150600 19 195 3.2 9.7 0.00 0.00 0.00 42
20260504150359 19 162 1.6 9.7 0.00 0.00 0.00 42
20260504150159 19 157 3.2 9.7 0.00 0.00 0.00 42
20260504141159 17 165 4.8 11.3 0.00 0.00 0.00 49
20260504140759 16 254 6.4 11.3 0.00 0.00 0.00 53
20260504140359 16 239 3.2 6.4 0.00 0.00 0.00 57
20260504140159 16 261 1.6 6.4 0.00 0.00 0.00 51
20260504130601 14 236 6.4 16.1 0.00 0.00 0.00 56
20260504130401 14 212 6.4 16.1 0.00 0.00 0.00 55
20260504130201 14 238 8.0 20.9 0.00 0.00 0.00 55
20260504120200 12 242 9.7 22.5 0.00 0.00 0.00 59
20260504110600 11 229 3.2 12.9 0.00 0.00 0.00 64
20260504110400 11 239 3.2 12.9 0.00 0.00 0.00 64
20260504110159 11 240 3.2 11.3 0.00 0.00 0.00 64
20260504100600 11 218 3.2 12.9 0.00 0.00 0.00 65
20260504100400 11 216 4.8 12.9 0.00 0.00 0.00 65
20260504082005 11 239 0.0 3.2 0.00 0.00 0.00 65
20260504081801 11 239 0.0 3.2 0.00 0.00 0.00 65
20260504081401 11 239 0.0 3.2 0.00 0.00 0.00 65
20260504081005 11 239 0.0 3.2 0.00 0.00 0.00 65
20260504080758 11 239 0.0 3.2 0.00 0.00 0.00 65
20260504080601 11 238 0.0 3.2 0.00 0.00 0.00 66
20260504080402 11 238 0.0 3.2 0.00 0.00 0.00 65
20260504070359 10 233 0.0 4.8 0.00 0.00 0.00 66
20260504070159 10 233 1.6 4.8 0.00 0.00 0.00 66
20260504050559 8 231 0.0 0.0 0.00 0.00 0.00 68
20260504050359 8 231 0.0 0.0 0.00 0.00 0.00 66
20260504050159 8 231 0.0 0.0 0.00 0.00 0.00 67
20260504050003 8 231 0.0 0.0 0.00 0.00 0.00 68
20260504045801 8 230 0.0 0.0 0.00 0.00 0.00 68
20260504045559 8 231 0.0 0.0 0.00 0.00 0.00 68
20260504045359 8 231 0.0 0.0 0.00 0.00 0.00 68
20260504045159 8 231 0.0 0.0 0.00 0.00 0.00 68
20260504045003 8 231 0.0 0.0 0.00 0.00 0.00 67
20260504044800 8 231 0.0 1.6 0.00 0.00 0.00 68
20260504044559 8 231 0.0 1.6 0.00 0.00 0.00 69
20260504044400 8 230 0.0 1.6 0.00 0.00 0.00 67
20260504044200 8 230 0.0 1.6 0.00 0.00 0.00 67
20260504043759 8 230 0.0 0.0 0.00 0.00 0.00 66
20260504043602 8 230 0.0 0.0 0.00 0.00 0.00 66
20260504043401 8 231 0.0 0.0 0.00 0.00 0.00 66
20260504043200 8 231 0.0 0.0 0.00 0.00 0.00 66
20260504043005 8 230 0.0 0.0 0.00 0.00 0.00 66
20260504042400 8 230 0.0 3.2 0.00 0.00 0.00 67
20260504042201 8 231 0.0 3.2 0.00 0.00 0.00 68
20260504042005 8 230 0.0 3.2 0.00 0.00 0.00 70
20260504041800 8 231 1.6 4.8 0.00 0.00 0.00 69
20260504041159 8 231 1.6 4.8 0.00 0.00 0.00 69
20260504040601 8 230 1.6 4.8 0.00 0.00 0.00 69
20260504040400 8 230 1.6 4.8 0.00 0.00 0.00 69
20260504040201 8 228 1.6 3.2 0.00 0.00 0.00 69
20260504040008 8 228 1.6 3.2 0.00 0.00 0.00 69
20260504035801 8 228 0.0 1.6 0.00 0.00 0.00 69
20260504035600 8 228 0.0 1.6 0.00 0.00 0.00 69
20260504035359 8 228 0.0 1.6 0.00 0.00 0.00 70
20260504035200 8 228 0.0 1.6 0.00 0.00 0.00 70
20260504035004 8 228 0.0 0.0 0.00 0.00 0.00 70
20260504034759 8 228 0.0 0.0 0.00 0.00 0.00 70
20260504034600 8 227 0.0 0.0 0.00 0.00 0.00 70
20260504034201 8 228 0.0 1.6 0.00 0.00 0.00 70
20260504034005 8 228 0.0 1.6 0.00 0.00 0.00 69
20260504033759 8 228 0.0 1.6 0.00 0.00 0.00 69
20260504033601 8 228 0.0 1.6 0.00 0.00 0.00 68
20260504033159 8 228 0.0 1.6 0.00 0.00 0.00 68
20260504033005 8 228 0.0 1.6 0.00 0.00 0.00 67
20260504032759 8 228 0.0 1.6 0.00 0.00 0.00 68
20260504032559 8 228 0.0 1.6 0.00 0.00 0.00 68
20260504032202 8 228 0.0 0.0 0.00 0.00 0.00 68
20260504032004 8 228 0.0 0.0 0.00 0.00 0.00 69
20260504031600 8 228 0.0 0.0 0.00 0.00 0.00 69
20260504031359 8 228 0.0 3.2 0.00 0.00 0.00 69
20260504031200 8 228 0.0 3.2 0.00 0.00 0.00 69
20260504031005 8 227 0.0 3.2 0.00 0.00 0.00 69
20260504030800 8 228 0.0 3.2 0.00 0.00 0.00 69
20260504030601 8 228 0.0 3.2 0.00 0.00 0.00 69
20260504030359 8 228 0.0 3.2 0.00 0.00 0.00 69
20260504030200 8 228 0.0 3.2 0.00 0.00 0.00 69
20260504030006 9 228 0.0 3.2 0.00 0.00 0.00 69
20260504025800 9 228 0.0 3.2 0.00 0.00 0.00 69
20260504025600 9 228 0.0 0.0 0.00 0.00 0.00 69
20260504025400 9 227 0.0 1.6 0.00 0.00 0.00 69
20260504025201 9 228 0.0 1.6 0.00 0.00 0.00 69
20260504024759 9 228 0.0 1.6 0.00 0.00 0.00 69
20260504024600 9 228 0.0 1.6 0.00 0.00 0.00 69
20260504024359 9 228 0.0 0.0 0.00 0.00 0.00 69
20260504024200 9 228 0.0 0.0 0.00 0.00 0.00 70
20260504024005 9 228 0.0 0.0 0.00 0.00 0.00 70
20260504023801 9 228 0.0 0.0 0.00 0.00 0.00 69
20260504023559 9 228 0.0 0.0 0.00 0.00 0.00 69
20260504023401 9 228 0.0 0.0 0.00 0.00 0.00 69
20260504023005 10 228 0.0 3.2 0.00 0.00 0.00 68
20260504022759 10 228 0.0 3.2 0.00 0.00 0.00 68
20260504022559 10 228 0.0 3.2 0.00 0.00 0.00 67
20260504022359 10 228 0.0 3.2 0.00 0.00 0.00 67
20260504022005 10 228 0.0 0.0 0.00 0.00 0.00 66
20260504021600 10 228 0.0 0.0 0.00 0.00 0.00 66
20260504021401 10 228 0.0 0.0 0.00 0.00 0.00 66
20260504021202 10 228 0.0 0.0 0.00 0.00 0.00 66
20260504021006 10 227 0.0 0.0 0.00 0.00 0.00 65
20260504020801 10 228 0.0 0.0 0.00 0.00 0.00 64
20260504020600 10 228 0.0 0.0 0.00 0.00 0.00 64
20260504020359 10 228 0.0 0.0 0.00 0.00 0.00 64
20260504020201 10 228 0.0 0.0 0.00 0.00 0.00 63
20260504020003 10 228 0.0 0.0 0.00 0.00 0.00 62
20260504015600 10 228 0.0 0.0 0.00 0.00 0.00 62
20260504015201 10 228 0.0 0.0 0.00 0.00 0.00 62
20260504015004 10 228 0.0 0.0 0.00 0.00 0.00 62
20260504014759 10 227 0.0 0.0 0.00 0.00 0.00 62
20260504014600 10 227 0.0 0.0 0.00 0.00 0.00 62
20260504014400 10 227 0.0 0.0 0.00 0.00 0.00 60
20260504013800 11 228 0.0 0.0 0.00 0.00 0.00 58
20260504013359 11 228 0.0 0.0 0.00 0.00 0.00 58
20260504013200 11 228 0.0 0.0 0.00 0.00 0.00 57
20260504013004 11 228 0.0 0.0 0.00 0.00 0.00 57
20260504012600 11 227 0.0 0.0 0.00 0.00 0.00 55
20260504012201 11 228 0.0 0.0 0.00 0.00 0.00 55
20260504012005 11 228 0.0 0.0 0.00 0.00 0.00 55
20260504011800 11 228 0.0 0.0 0.00 0.00 0.00 54
20260504011600 11 227 0.0 0.0 0.00 0.00 0.00 54
20260504011200 12 228 0.0 0.0 0.00 0.00 0.00 53
20260504011004 12 228 0.0 0.0 0.00 0.00 0.00 53
20260504010759 12 228 0.0 0.0 0.00 0.00 0.00 52
20260504010600 12 228 0.0 0.0 0.00 0.00 0.00 52
20260504010400 12 228 0.0 0.0 0.00 0.00 0.00 52
20260504010004 12 227 0.0 0.0 0.00 0.00 0.00 51
20260504005800 12 228 0.0 0.0 0.00 0.00 0.00 51
20260504005600 12 228 0.0 0.0 0.00 0.00 0.00 51
20260504005400 12 228 0.0 0.0 0.00 0.00 0.00 51
20260504005200 12 228 0.0 0.0 0.00 0.00 0.00 50
20260504005005 12 228 0.0 0.0 0.00 0.00 0.00 49
20260504004759 12 227 0.0 0.0 0.00 0.00 0.00 48
20260504004601 13 228 0.0 0.0 0.00 0.00 0.00 49
20260504004400 13 228 0.0 0.0 0.00 0.00 0.00 48
20260504004159 13 228 0.0 0.0 0.00 0.00 0.00 48
20260504004004 13 227 0.0 0.0 0.00 0.00 0.00 47
20260504003800 13 228 0.0 0.0 0.00 0.00 0.00 46
20260504003600 13 227 0.0 0.0 0.00 0.00 0.00 46
20260504003005 13 228 0.0 1.6 0.00 0.00 0.00 45
20260504002801 13 228 0.0 1.6 0.00 0.00 0.00 46
20260504002600 13 227 0.0 1.6 0.00 0.00 0.00 46
20260504002401 13 228 0.0 1.6 0.00 0.00 0.00 45
20260504002201 13 228 0.0 1.6 0.00 0.00 0.00 44
20260504002000 14 228 0.0 1.6 0.00 0.00 0.00 44
20260504001800 14 228 0.0 1.6 0.00 0.00 0.00 44
20260504001601 14 228 0.0 1.6 0.00 0.00 0.00 43
20260504001400 14 228 0.0 1.6 0.00 0.00 0.00 42
20260504001200 14 228 0.0 1.6 0.00 0.00 0.00 42
20260504001005 14 228 0.0 3.2 0.00 0.00 0.00 41
20260504000600 15 228 0.0 4.8 0.00 0.00 0.00 42
20260504000401 15 228 0.0 4.8 0.00 0.00 0.00 41
20260504000003 15 227 1.6 4.8 0.00 0.00 0.00 40
20260503235758 15 228 0.0 3.2 0.00 0.00 0.00 40
20260503235600 15 228 1.6 3.2 0.00 0.00 0.00 39
20260503235401 15 228 0.0 3.2 0.00 0.00 0.00 39
20260503235159 15 228 1.6 3.2 0.00 0.00 0.00 39